Tracking 17557 objects as of 7-February-2016
HD Live streaming from Space Station
objects crossing your sky now

OSCAR 36 (UOSAT 12)

Track OSCAR 36 (UOSAT 12) now!
10-day predictions
OSCAR 36 (UOSAT 12) is classified as:


NORAD ID: 25693
Int'l Code: 1999-021A
Perigee: 619.8 km
Apogee: 649.3 km
Inclination: 64.6 °
Period: 97.3 minutes
Semi major axis: 7005 km
RCS: 1.4285 m2 (large)
Launch date: April 21, 1999
Source: United Kingdom (UK)
Launch site: TYURATAM MISSILE AND SPACE COMPLEX (TTMTR)

Used for email and communication services to remote areas.
Your satellite tracking list
Your tracking list is empty





NASA's NSSDC Master Catalog

Two Line Element Set (TLE):
1 25693U 99021A   16038.51864255  .00000224  00000-0  47727-4 0  9999
2 25693  64.5545 213.1804 0021043 214.1936 179.4131 14.8060230096781
Source of the keplerian elements: AFSPC

N2YO: 1023